TimeCET,TemperatureF,Dew PointF,Humidity,Sea Level PressureIn,VisibilityMPH,Wind Direction,Wind SpeedMPH,Gust SpeedMPH,PrecipitationIn,Events,Conditions,WindDirDegrees,DateUTC
12:00 AM,37.4,33.8,87,29.71,6.2,NE,6.9,-,N/A,,Mostly Cloudy,40,2013-02-07 23:00:00
12:30 AM,37.4,32.0,81,29.71,6.2,NE,6.9,-,N/A,,Unknown,40,2013-02-07 23:30:00
1:00 AM,36,32,78,29.73,31,NE,6.9,,,,Clear,40,2013-02-08 00:00:00
1:00 AM,35.6,32.0,87,29.71,6.2,NE,6.9,-,N/A,,Unknown,40,2013-02-08 00:00:00
1:30 AM,35.6,32.0,87,29.71,6.2,ENE,8.1,-,N/A,,Unknown,60,2013-02-08 00:30:00
2:00 AM,35.6,32.0,87,29.71,6.2,NE,4.6,-,N/A,,Unknown,50,2013-02-08 01:00:00
2:30 AM,35.6,30.2,81,29.71,6.2,NE,5.8,-,N/A,,Unknown,50,2013-02-08 01:30:00
3:00 AM,33.8,30.2,87,29.74,6.2,NE,6.9,-,N/A,,Unknown,50,2013-02-08 02:00:00
3:30 AM,35.6,32.0,87,29.71,6.2,NE,6.9,-,N/A,,Unknown,50,2013-02-08 02:30:00
4:00 AM,35.6,30.2,81,29.71,6.2,NE,6.9,-,N/A,,Unknown,50,2013-02-08 03:00:00
4:30 AM,32.0,30.2,93,29.71,6.2,ENE,6.9,-,N/A,,Unknown,60,2013-02-08 03:30:00
5:00 AM,35.6,30.2,81,29.71,6.2,ENE,4.6,-,N/A,,Unknown,60,2013-02-08 04:00:00
5:30 AM,33.8,30.2,87,29.71,6.2,Variable,3.5,-,N/A,,Unknown,0,2013-02-08 04:30:00
6:00 AM,33.8,28.4,81,29.71,6.2,NE,5.8,-,N/A,,Partly Cloudy,40,2013-02-08 05:00:00
6:30 AM,32.0,28.4,87,29.71,6.2,ENE,8.1,-,N/A,,Partly Cloudy,60,2013-02-08 05:30:00
7:00 AM,32,29,83,29.74,19,NE,9.2,,,,Scattered Clouds,40,2013-02-08 06:00:00
7:00 AM,32.0,28.4,87,29.71,6.2,NE,8.1,-,N/A,,Partly Cloudy,40,2013-02-08 06:00:00
7:30 AM,32.0,28.4,87,29.71,6.2,NE,8.1,-,N/A,,Partly Cloudy,40,2013-02-08 06:30:00
8:00 AM,32.0,28.4,87,29.74,6.2,NE,9.2,-,N/A,,Partly Cloudy,40,2013-02-08 07:00:00
8:30 AM,35.6,30.2,81,29.74,6.2,NE,9.2,-,N/A,,Partly Cloudy,40,2013-02-08 07:30:00
9:00 AM,37.4,32.0,81,29.74,6.2,NE,5.8,-,N/A,,Scattered Clouds,40,2013-02-08 08:00:00
9:30 AM,41.0,32.0,70,29.74,6.2,NE,4.6,-,N/A,,Scattered Clouds,50,2013-02-08 08:30:00
10:00 AM,46.4,32.0,57,29.74,6.2,Variable,2.3,-,N/A,,Scattered Clouds,0,2013-02-08 09:00:00
10:30 AM,46.4,30.2,53,29.74,6.2,Variable,1.2,-,N/A,,Scattered Clouds,0,2013-02-08 09:30:00
11:00 AM,50.0,30.2,47,29.74,6.2,Variable,1.2,-,N/A,,Scattered Clouds,0,2013-02-08 10:00:00
11:30 AM,50.0,35.6,58,29.74,6.2,SSW,4.6,-,N/A,,Scattered Clouds,210,2013-02-08 10:30:00
12:00 PM,51.8,37.4,58,29.74,6.2,SSW,4.6,-,N/A,,Scattered Clouds,200,2013-02-08 11:00:00
12:30 PM,51.8,35.6,54,29.74,6.2,WSW,12.7,-,N/A,,Scattered Clouds,240,2013-02-08 11:30:00
12:39 PM,51.8,33.8,50,29.71,6.2,SW,11.5,-,N/A,,Scattered Clouds,220,2013-02-08 11:39:00
1:00 PM,50,36,47,29.73,25,WSW,16.1,,,,Mostly Cloudy,250,2013-02-08 12:00:00
1:00 PM,50.0,35.6,58,29.71,6.2,WSW,16.1,-,N/A,,Scattered Clouds,250,2013-02-08 12:00:00
1:30 PM,51.8,33.8,50,29.71,6.2,West,12.7,-,N/A,,Scattered Clouds,280,2013-02-08 12:30:00
2:00 PM,51.8,33.8,50,29.71,6.2,West,16.1,-,N/A,,Scattered Clouds,270,2013-02-08 13:00:00
2:30 PM,50.0,32.0,50,29.71,6.2,West,13.8,-,N/A,,Scattered Clouds,270,2013-02-08 13:30:00
3:00 PM,50.0,32.0,50,29.68,6.2,West,16.1,-,N/A,,Scattered Clouds,280,2013-02-08 14:00:00
3:30 PM,50.0,30.2,47,29.68,6.2,WNW,12.7,-,N/A,,Scattered Clouds,290,2013-02-08 14:30:00
4:00 PM,50.0,32.0,50,29.71,6.2,Variable,5.8,-,N/A,,Scattered Clouds,0,2013-02-08 15:00:00
4:30 PM,46.4,33.8,62,29.71,6.2,East,10.4,-,N/A,,Scattered Clouds,90,2013-02-08 15:30:00
5:00 PM,46.4,32.0,57,29.71,6.2,ENE,10.4,-,N/A,,Scattered Clouds,60,2013-02-08 16:00:00
6:00 PM,44.6,33.8,66,29.71,6.2,NE,6.9,-,N/A,,Scattered Clouds,40,2013-02-08 17:00:00
6:30 PM,42.8,32.0,66,29.71,6.2,NE,5.8,-,N/A,,Scattered Clouds,40,2013-02-08 17:30:00
7:00 PM,43,33,57,29.74,25,NE,6.9,,,,Mostly Cloudy,40,2013-02-08 18:00:00
7:00 PM,42.8,32.0,66,29.71,6.2,NE,8.1,-,N/A,,Scattered Clouds,50,2013-02-08 18:00:00
7:30 PM,41.0,33.8,76,29.74,6.2,East,4.6,-,N/A,,Mostly Cloudy,80,2013-02-08 18:30:00
8:00 PM,41.0,32.0,70,29.74,6.2,NNE,4.6,-,N/A,,Mostly Cloudy,20,2013-02-08 19:00:00
8:30 PM,41.0,32.0,70,29.74,6.2,NE,5.8,-,N/A,,Mostly Cloudy,40,2013-02-08 19:30:00
9:00 PM,39.2,30.2,70,29.77,6.2,Variable,2.3,-,N/A,,Scattered Clouds,0,2013-02-08 20:00:00
9:30 PM,37.4,30.2,75,29.77,6.2,Variable,2.3,-,N/A,,Scattered Clouds,0,2013-02-08 20:30:00
10:00 PM,37.4,30.2,75,29.77,6.2,ENE,5.8,-,N/A,,Scattered Clouds,60,2013-02-08 21:00:00
10:30 PM,37.4,30.2,75,29.80,6.2,NNE,8.1,-,N/A,,Scattered Clouds,30,2013-02-08 21:30:00
11:00 PM,35.6,30.2,81,29.80,6.2,NNE,6.9,-,N/A,,Scattered Clouds,30,2013-02-08 22:00:00
11:30 PM,37.4,30.2,75,29.80,6.2,ENE,8.1,-,N/A,,Scattered Clouds,70,2013-02-08 22:30:00